{"data":{"norad_id":66925,"intl_designator":"2025-286A","name":"STARLINK-35945","alt_names":[],"object_type":"PAYLOAD","status":"ACTIVE","operator":null,"country":"US","launch_date":"2025-12-07","launch_site_code":"AFWTR","launch_vehicle":null,"mission":null,"orbit_class":"UNKNOWN","rcs_meters":null,"size_class":null,"mass_kg":null,"dimensions":null,"purposes":["comms"],"wikipedia_slug":null,"has_3d_model":false,"image_url":null,"decayed_at":null,"tle_current":{"epoch":"2026-05-25T00:17:03.109056Z","epoch_age_seconds":77513,"freshness":"FRESH","line1":"1 66925U 25286A   26145.01184154  .00023754  00000+0  71185-3 0  9998","line2":"2 66925  53.1609   3.8240 0001395  86.1961 273.9201 15.34403584 27101","mean_motion":15.34403584,"eccentricity":0.0001395,"inclination_deg":53.1609,"raan_deg":3.824,"arg_perigee_deg":86.1961,"mean_anomaly_deg":273.9201,"bstar":0.00071185,"rev_number":2710,"period_min":93.847538875405,"perigee_km":461.73829209704,"apogee_km":463.64688355205,"semimajor_km":6840.8295878245,"source":"CELESTRAK","updated_at":"2026-05-25T13:38:21.384286Z"}}}